| time (UTC) | temp C | wind direction | speed KPH | gust KPH | rain 1hr cm | rain 24hr cm | rain mn cm | humidity % | barometer mb |
| 20260508161512 | 16 | 213 | 11.3 | 22.5 | 0.00 | 0.00 | 0.00 | 46 | 1014.3 |
| 20260508160017 | 16 | 256 | 4.8 | 19.3 | 0.00 | 0.00 | 0.00 | 45 | 1014.4 |
| 20260508154518 | 16 | 254 | 9.7 | 22.5 | 0.00 | 0.00 | 0.00 | 46 | 1014.7 |
| 20260508153018 | 16 | 296 | 3.2 | 12.9 | 0.00 | 0.00 | 0.00 | 53 | 1014.9 |
| 20260508151518 | 15 | 309 | 4.8 | 12.9 | 0.00 | 0.00 | 0.00 | 45 | 1015.0 |
| 20260508150022 | 14 | 279 | 4.8 | 16.1 | 0.00 | 0.00 | 0.00 | 47 | 1015.2 |
| 20260508144521 | 15 | 344 | 4.8 | 9.7 | 0.00 | 0.00 | 0.00 | 53 | 1015.2 |
| 20260508143024 | 13 | 261 | 3.2 | 12.9 | 0.00 | 0.00 | 0.00 | 51 | 1015.3 |
| 20260508141522 | 12 | 221 | 4.8 | 8.0 | 0.00 | 0.00 | 0.00 | 53 | 1015.4 |
| 20260508140023 | 12 | 225 | 4.8 | 12.9 | 0.00 | 0.00 | 0.00 | 54 | 1015.6 |
| 20260508134525 | 12 | 251 | 6.4 | 11.3 | 0.00 | 0.00 | 0.00 | 55 | 1015.7 |
| 20260508133024 | 12 | 211 | 6.4 | 11.3 | 0.00 | 0.00 | 0.00 | 54 | 1015.7 |
| 20260508131530 | 12 | 180 | 1.6 | 6.4 | 0.00 | 0.00 | 0.00 | 61 | 1015.6 |
| 20260508130026 | 11 | 286 | 3.2 | 4.8 | 0.00 | 0.00 | 0.00 | 63 | 1015.6 |
| 20260508124525 | 11 | 279 | 1.6 | 4.8 | 0.00 | 0.00 | 0.00 | 68 | 1015.7 |
| 20260508123028 | 11 | 231 | 1.6 | 4.8 | 0.00 | 0.00 | 0.00 | 74 | 1015.7 |
| 20260508121504 | 10 | 302 | 0.0 | 4.8 | 0.00 | 0.00 | 0.00 | 79 | 1015.7 |
| 20260508120010 | 9 | 311 | 0.0 | 3.2 | 0.00 | 0.00 | 0.00 | 83 | 1015.8 |
| 20260508114505 | 7 | 238 | 0.0 | 3.2 | 0.00 | 0.00 | 0.00 | 92 | 1015.5 |
| 20260508113011 | 6 | 342 | 0.0 | 3.2 | 0.00 | 0.00 | 0.00 | 94 | 1015.5 |
| 20260508111508 | 5 | 342 | 0.0 | 0.0 | 0.00 | 0.00 | 0.00 | 94 | 1015.5 |
| 20260508110006 | 3 | 342 | 0.0 | 0.0 | 0.00 | 0.00 | 0.00 | 93 | 1015.4 |
| 20260508104504 | 3 | 342 | 0.0 | 0.0 | 0.00 | 0.00 | 0.00 | 93 | 1015.2 |
| 20260508103007 | 3 | 342 | 0.0 | 3.2 | 0.00 | 0.00 | 0.00 | 92 | 1015.2 |
| 20260508101507 | 2 | 342 | 0.0 | 1.6 | 0.00 | 0.00 | 0.00 | 92 | 1015.2 |
| 20260508100007 | 3 | 342 | 0.0 | 0.0 | 0.00 | 0.00 | 0.00 | 92 | 1014.9 |
| 20260508094509 | 3 | 342 | 0.0 | 0.0 | 0.00 | 0.00 | 0.00 | 91 | 1015.0 |
| 20260508093010 | 3 | 342 | 0.0 | 0.0 | 0.00 | 0.00 | 0.00 | 91 | 1014.8 |
| 20260508091508 | 3 | 342 | 0.0 | 0.0 | 0.00 | 0.00 | 0.00 | 90 | 1014.6 |
| 20260508090012 | 3 | 342 | 0.0 | 0.0 | 0.00 | 0.00 | 0.00 | 89 | 1014.6 |
| 20260508084510 | 4 | 342 | 0.0 | 0.0 | 0.00 | 0.00 | 0.00 | 88 | 1014.5 |
| 20260508083004 | 5 | 342 | 1.6 | 3.2 | 0.00 | 0.00 | 0.00 | 88 | 1014.4 |
| 20260508081506 | 5 | 342 | 0.0 | 1.6 | 0.00 | 0.00 | 0.00 | 88 | 1014.2 |
| 20260508080006 | 5 | 342 | 0.0 | 3.2 | 0.00 | 0.00 | 0.00 | 86 | 1014.0 |
| 20260508074507 | 6 | 342 | 1.6 | 3.2 | 0.00 | 0.00 | 0.00 | 85 | 1013.9 |
| 20260508073011 | 6 | 341 | 1.6 | 3.2 | 0.00 | 0.00 | 0.00 | 84 | 1013.8 |
| 20260508071508 | 6 | 341 | 1.6 | 3.2 | 0.00 | 0.00 | 0.00 | 82 | 1013.7 |
| 20260508070009 | 8 | 283 | 0.0 | 3.2 | 0.00 | 0.00 | 0.00 | 78 | 1013.5 |
| 20260508064517 | 9 | 283 | 1.6 | 6.4 | 0.00 | 0.00 | 0.00 | 73 | 1013.3 |
| 20260508063013 | 10 | 250 | 1.6 | 9.7 | 0.00 | 0.03 | 0.00 | 71 | 1013.1 |
| 20260508061516 | 10 | 290 | 1.6 | 16.1 | 0.00 | 0.05 | 0.00 | 68 | 1013.0 |
| 20260508060016 | 10 | 344 | 4.8 | 14.5 | 0.00 | 0.10 | 0.00 | 67 | 1012.7 |
| 20260508054518 | 10 | 242 | 4.8 | 14.5 | 0.00 | 0.13 | 0.00 | 68 | 1012.7 |
| 20260508053016 | 8 | 233 | 4.8 | 12.9 | 0.00 | 0.23 | 0.00 | 80 | 1012.6 |
| 20260508051527 | 8 | 284 | 1.6 | 4.8 | 0.00 | 0.30 | 0.00 | 81 | 1011.7 |
| 20260508050018 | 8 | 284 | 0.0 | 3.2 | 0.00 | 0.33 | 0.00 | 80 | 1011.6 |
| 20260508044518 | 9 | 277 | 0.0 | 6.4 | 0.00 | 0.41 | 0.00 | 80 | 1011.6 |
| 20260508043021 | 9 | 346 | 0.0 | 3.2 | 0.00 | 0.41 | 0.00 | 85 | 1011.3 |
| 20260508041517 | 9 | 346 | 0.0 | 3.2 | 0.00 | 0.43 | 0.00 | 83 | 1011.4 |
| 20260508040021 | 9 | 346 | 0.0 | 0.0 | 0.00 | 0.43 | 0.00 | 83 | 1011.0 |
| 20260508034518 | 9 | 346 | 0.0 | 1.6 | 0.00 | 0.43 | 0.43 | 84 | 1010.9 |
| 20260508033022 | 10 | 346 | 0.0 | 1.6 | 0.00 | 0.43 | 0.43 | 83 | 1010.9 |
| 20260508031505 | 10 | 346 | 0.0 | 3.2 | 0.00 | 0.43 | 0.43 | 83 | 1010.9 |
| 20260508030006 | 10 | 346 | 0.0 | 0.0 | 0.00 | 0.43 | 0.43 | 82 | 1010.8 |
| 20260508024504 | 10 | 346 | 0.0 | 0.0 | 0.00 | 0.43 | 0.43 | 81 | 1010.8 |
| 20260508023006 | 9 | 346 | 0.0 | 0.0 | 0.00 | 0.46 | 0.43 | 82 | 1010.9 |
| 20260508021508 | 9 | 346 | 0.0 | 0.0 | 0.00 | 0.46 | 0.43 | 82 | 1010.9 |
| 20260508020012 | 10 | 346 | 0.0 | 3.2 | 0.00 | 0.46 | 0.43 | 81 | 1010.8 |
| 20260508014511 | 9 | 346 | 0.0 | 3.2 | 0.00 | 0.46 | 0.43 | 80 | 1010.6 |
| 20260508013012 | 9 | 346 | 0.0 | 0.0 | 0.00 | 0.46 | 0.43 | 81 | 1010.3 |
| 20260508011512 | 9 | 346 | 0.0 | 3.2 | 0.00 | 0.46 | 0.43 | 79 | 1010.3 |
| 20260508010014 | 10 | 346 | 0.0 | 0.0 | 0.00 | 0.46 | 0.43 | 74 | 1010.2 |
| 20260508004513 | 10 | 346 | 1.6 | 3.2 | 0.00 | 0.46 | 0.43 | 76 | 1010.1 |
| 20260508003013 | 10 | 346 | 0.0 | 0.0 | 0.00 | 0.46 | 0.43 | 75 | 1010.0 |
| 20260508001516 | 10 | 346 | 0.0 | 0.0 | 0.00 | 0.46 | 0.43 | 72 | 1009.8 |
| 20260508000014 | 11 | 346 | 0.0 | 3.2 | 0.00 | 0.46 | 0.43 | 69 | 1009.7 |
| 20260507234516 | 12 | 346 | 0.0 | 3.2 | 0.00 | 0.46 | 0.43 | 67 | 1009.6 |
| 20260507233017 | 13 | 346 | 0.0 | 4.8 | 0.00 | 0.46 | 0.43 | 58 | 1009.4 |
| 20260507231516 | 15 | 352 | 0.0 | 3.2 | 0.00 | 0.46 | 0.43 | 56 | 1009.5 |
| 20260507230017 | 16 | 304 | 1.6 | 6.4 | 0.00 | 0.46 | 0.43 | 41 | 1009.6 |
| 20260507224523 | 17 | 340 | 3.2 | 6.4 | 0.00 | 0.46 | 0.43 | 40 | 1009.4 |
| 20260507223020 | 17 | 323 | 3.2 | 8.0 | 0.00 | 0.46 | 0.43 | 39 | 1009.4 |
| 20260507221517 | 16 | 315 | 0.0 | 6.4 | 0.00 | 0.46 | 0.43 | 39 | 1009.5 |
| 20260507220021 | 17 | 274 | 1.6 | 12.9 | 0.00 | 0.46 | 0.43 | 39 | 1009.5 |
| 20260507214523 | 17 | 259 | 6.4 | 9.7 | 0.00 | 0.46 | 0.43 | 39 | 1009.7 |
| 20260507213019 | 17 | 118 | 0.0 | 14.5 | 0.00 | 0.46 | 0.43 | 35 | 1009.6 |
| 20260507211520 | 18 | 246 | 6.4 | 20.9 | 0.00 | 0.46 | 0.43 | 41 | 1009.6 |
| 20260507210026 | 17 | 258 | 3.2 | 14.5 | 0.00 | 0.46 | 0.43 | 38 | 1009.6 |
| 20260507204519 | 17 | 300 | 4.8 | 16.1 | 0.00 | 0.46 | 0.43 | 38 | 1009.5 |
| 20260507203018 | 17 | 55 | 4.8 | 14.5 | 0.00 | 0.46 | 0.43 | 37 | 1009.4 |
| 20260507201520 | 17 | 341 | 4.8 | 24.1 | 0.00 | 0.46 | 0.43 | 41 | 1009.6 |
| 20260507200014 | 17 | 292 | 4.8 | 17.7 | 0.00 | 0.46 | 0.43 | 36 | 1009.6 |
| 20260507194518 | 18 | 178 | 4.8 | 14.5 | 0.00 | 0.46 | 0.43 | 42 | 1009.7 |
| 20260507193016 | 18 | 301 | 8.0 | 20.9 | 0.00 | 0.46 | 0.43 | 34 | 1010.0 |
| 20260507191517 | 18 | 5 | 3.2 | 16.1 | 0.00 | 0.46 | 0.43 | 38 | 1010.1 |
| 20260507190020 | 17 | 237 | 4.8 | 11.3 | 0.00 | 0.46 | 0.43 | 43 | 1010.2 |
| 20260507184520 | 17 | 315 | 9.7 | 17.7 | 0.00 | 0.46 | 0.43 | 40 | 1010.3 |
| 20260507183020 | 17 | 215 | 1.6 | 17.7 | 0.00 | 0.46 | 0.43 | 41 | 1010.5 |
| 20260507181521 | 17 | 313 | 9.7 | 22.5 | 0.00 | 0.46 | 0.43 | 39 | 1010.7 |
| 20260507180023 | 16 | 19 | 4.8 | 17.7 | 0.00 | 0.46 | 0.43 | 38 | 1010.9 |
| 20260507174503 | 16 | 299 | 4.8 | 16.1 | 0.00 | 0.46 | 0.43 | 42 | 1011.1 |
| 20260507173015 | 17 | 276 | 8.0 | 22.5 | 0.00 | 0.46 | 0.43 | 44 | 1011.2 |
| 20260507171507 | 16 | 198 | 1.6 | 12.9 | 0.00 | 0.46 | 0.43 | 44 | 1011.6 |
| 20260507170007 | 16 | 349 | 4.8 | 16.1 | 0.00 | 0.46 | 0.43 | 46 | 1012.0 |
| 20260507164505 | 16 | 18 | 4.8 | 14.5 | 0.00 | 0.46 | 0.43 | 48 | 1012.1 |
| 20260507163008 | 16 | 242 | 4.8 | 16.1 | 0.00 | 0.46 | 0.43 | 49 | 1012.4 |